RMI weather

Federico Fellini International Airport
Rimini, Emilia-Romagna, Italy

Public forecast

Using degrees Celsius for public forecast. Weather courtesy of forecast.io.

Current aviation weather report (METAR) for Federico Fellini International Airport

Retrieved 2020/02/22 06:50 UTC (31 minutes ago):

LIPR 220650Z VRB02KT 8000 NSC 01/M01 Q1032

Aviation forecast (TAF) for Federico Fellini International Airport

Forecast is more than 12 hours old.

Retrieved 2016/08/23 03:00 UTC (4 years ago):

TAF LIPR 230200Z 2303/2312 04007KT CAVOK BECMG 2308/2310 02010KT